This demonstration page uses our WeatherBlox Daily Observations layout. Learn more.

36.17497, -115.13722

Hourly Observations for July 13, 2015

Temp ( °F °C ) Dew Point ( °F °C ) Humidity (%) Winds ( mph kmh ) Pressure ( in mb ) Visibility ( mi km ) Precip ( " mm )
12:53 am 00:53 Clear 84 29 36 2 18 18 SSW 9 15 29.77 1008 10 16.09344 0 0
1:53 am 01:53 Clear 82 28 36 2 19 19 ENE 3 6 29.77 1008 10 16.09344 0 0
2:53 am 02:53 Clear 81 27 36 2 20 20 Calm 29.8 1009 10 16.09344 0 0
3:53 am 03:53 Clear 79 26 39 4 24 24 NW 5 7 29.8 1009 10 16.09344 0 0
4:53 am 04:53 Clear 75 24 39 4 27 27 Calm 29.8 1009 10 16.09344 0 0
5:53 am 05:53 Sunny 75 24 39 4 27 27 WNW 6 9 29.85 1011 10 16.09344 0 0
6:53 am 06:53 Sunny 79 26 43 6 28 28 N 6 9 29.83 1010 10 16.09344 0 0
7:53 am 07:53 Sunny 82 28 37 3 20 20 ESE 5 7 29.85 1011 10 16.09344 0 0
8:53 am 08:53 Sunny 86 30 39 4 19 19 Calm 29.83 1010 10 16.09344 0 0
9:53 am 09:53 Sunny 90 32 39 4 17 17 SSE 5 7 29.8 1009 10 16.09344 0 0
10:53 am 10:53 Sunny 91 33 37 3 15 15 SE 6 9 29.77 1008 10 16.09344 0 0
11:53 am 11:53 Sunny 97 36 37 3 13 13 S 18 30 29.71 1006 10 16.09344 0 0
12:53 pm 12:53 Sunny 99 37 39 4 13 13 SSE 14 22 29.68 1005 10 16.09344 0 0
1:53 pm 13:53 Sunny 100 38 39 4 12 12 SSW 15 24 29.65 1004 10 16.09344 0 0
2:53 pm 14:53 Sunny 102 39 39 4 11 11 SW 15 24 29.62 1003 10 16.09344 0 0
3:53 pm 15:53 Sunny 102 39 39 4 11 11 W 7 11 29.56 1001 10 16.09344 0 0
4:53 pm 16:53 Sunny 102 39 37 3 11 11 W 14 22 29.53 1000 10 16.09344 0 0
5:53 pm 17:53 Sunny 102 39 34 1 9 9 W 15 24 29.53 1000 10 16.09344 0 0
6:53 pm 18:53 Sunny 100 38 28 -2 8 8 W 14 22 29.56 1001 10 16.09344 0 0
7:53 pm 19:53 Sunny 99 37 27 -3 8 8 WSW 10 17 29.56 1001 10 16.09344 0 0
8:53 pm 20:53 Clear 95 35 23 -5 7 7 WSW 10 17 29.56 1001 10 16.09344 0 0
9:53 pm 21:53 Clear 93 34 21 -6 7 7 W 9 15 29.62 1003 10 16.09344 0 0
10:53 pm 22:53 Clear 91 33 25 -4 9 9 Calm 29.62 1003 10 16.09344 0 0
11:53 pm 23:53 Clear 88 31 25 -4 10 10 SE 3 6 29.62 1003 10 16.09344 0 0

Powered by AerisWeather